GFSNW_sfc_dewp_132.txt.gz
Dewpoint
57 57 56 54 53 51 50 47 41 43 42 36 38 34 34 34 28 31 27 19 16 17 18 20 19 27 28 29 27 25 31 22 22 22 24 23 24 22 26 25 24 32 33 33
57 56 55 53 52 52 48 45 45 46 38 30 29 30 29 31 28 27 24 20 20 20 19 20 28 30 30 28 28 25 33 25 22 20 18 15 17 25 37 31 32 32 30 34
56 55 54 53 53 53 48 46 42 41 40 38 39 37 36 35 35 30 24 23 22 19 20 20 28 29 27 27 28 52 35 23 23 19 18 17 14 16 19 30 28 29 33 38
54 53 54 54 53 53 48 47 44 44 40 41 40 38 36 35 35 34 28 27 32 29 18 21 24 27 24 27 48 23 20 17 20 20 19 19 21 20 22 17 21 29 30 35
53 54 55 54 54 52 48 46 46 46 44 42 40 38 36 36 37 37 38 38 39 40 22 18 21 23 24 22 26 21 18 15 22 22 24 26 25 31 29 32 33 33 33 40
54 55 55 55 54 51 48 49 49 47 44 42 41 38 38 37 40 39 39 40 43 37 30 26 25 23 26 25 23 27 23 20 30 28 30 27 23 31 32 33 34 34 32 34
53 53 54 55 54 52 48 48 48 45 42 43 42 43 42 38 41 39 39 42 44 38 45 28 29 28 28 27 26 30 31 28 30 27 26 24 28 35 34 33 38 41 40 49
52 52 53 55 55 54 49 49 48 48 44 44 42 41 41 41 40 39 40 43 43 46 41 28 26 28 23 27 28 25 25 27 24 21 24 26 33 38 36 32 34 47 48 52
54 53 52 54 54 54 50 49 50 50 46 42 43 43 43 40 40 40 41 44 47 44 37 32 27 26 25 24 24 26 28 29 26 30 25 25 30 40 41 40 34 48 50 53
55 53 52 54 54 54 51 49 51 51 47 45 44 43 44 46 42 42 43 43 44 43 36 33 31 30 34 30 29 27 28 29 24 28 25 29 38 43 44 34 33 47 51 52
53 54 54 54 53 54 52 49 51 51 48 46 46 44 43 47 47 43 44 47 44 43 38 35 33 31 34 33 35 31 28 29 28 33 32 32 44 45 40 44 49 50 52 53
51 53 54 54 54 54 55 48 52 53 51 48 49 49 48 46 46 48 49 47 46 45 43 43 42 34 37 37 30 36 29 35 37 36 37 45 49 44 50 51 52 51 50 52
49 52 54 54 54 54 54 52 52 50 47 46 44 43 44 46 45 46 47 50 47 43 43 46 42 36 40 36 35 36 43 44 42 38 43 44 53 52 53 53 54 55 53 54
50 51 53 53 54 54 54 52 54 52 50 44 42 44 43 43 45 45 47 47 49 46 43 41 45 40 42 38 37 41 45 41 42 41 49 52 52 55 56 56 55 57 58 58
50 51 53 53 54 54 55 54 53 53 48 43 44 45 45 45 44 44 44 44 47 43 41 39 38 44 41 41 42 40 42 37 36 38 45 48 51 53 55 53 52 53 56 58
50 51 53 53 53 54 52 47 53 53 53 47 41 44 43 43 41 42 42 43 47 46 42 41 41 44 43 40 38 41 45 46 44 45 49 49 54 55 56 54 53 55 57 58
51 52 53 53 53 53 49 47 51 53 53 47 42 41 45 44 42 42 42 41 43 51 43 41 38 40 46 43 38 40 40 46 47 52 51 50 54 51 55 53 55 57 58 59
52 53 53 52 52 53 49 50 51 52 49 48 43 41 44 48 43 41 45 41 43 43 47 42 39 42 45 40 42 42 42 46 45 53 51 49 52 56 56 55 57 55 54 54
53 52 52 51 51 48 48 55 54 52 49 45 45 40 40 49 48 50 44 44 40 44 42 38 40 40 40 41 45 42 43 43 44 48 52 51 53 55 56 56 56 53 52 51
52 48 48 46 49 55 54 50 49 49 49 48 44 43 40 44 47 48 48 47 43 39 42 40 38 37 41 41 45 44 44 44 42 43 46 52 51 54 55 55 55 51 51 51
47 46 46 53 55 52 48 45 45 44 43 44 43 42 39 47 43 46 50 47 47 41 43 38 38 34 35 41 40 43 43 42 42 42 43 49 48 52 53 52 52 52 52 52
49 48 49 50 49 45 44 43 44 44 41 44 43 43 42 47 50 47 48 46 46 40 49 44 38 41 37 40 42 42 42 40 42 45 44 46 47 47 51 53 53 53 53 53
51 48 46 46 46 39 40 37 41 42 46 48 50 47 47 46 47 46 44 44 43 49 45 42 43 44 44 44 44 43 44 42 44 45 46 46 46 49 48 53 53 54 54 55
44 43 36 41 40 41 40 42 44 47 48 48 49 47 48 47 45 46 42 44 45 41 39 41 46 46 49 50 53 46 48 48 47 47 46 47 47 51 49 51 54 55 54 56
43 44 37 39 40 41 45 49 48 49 49 49 47 47 46 47 45 46 45 42 40 39 41 46 49 49 52 54 53 48 47 49 49 47 46 46 47 50 50 54 55 55 55 56
45 44 41 42 42 43 47 47 49 52 50 51 49 43 41 40 41 42 41 38 38 40 46 50 53 51 52 51 50 53 54 49 48 48 47 46 46 48 51 55 55 56 56 57
43 42 43 42 41 42 45 48 47 50 47 43 42 39 38 43 40 39 42 43 47 50 49 52 52 52 51 52 51 52 54 55 54 52 52 51 49 49 52 54 56 56 56 57

GFSNW_sfc_dewp_138.txt.gz
Dewpoint
57 55 53 54 52 52 49 44 31 43 45 35 36 34 37 35 31 33 31 29 26 21 18 18 19 19 21 24 23 19 26 22 22 21 24 22 21 21 25 19 20 31 30 29
56 54 53 53 52 52 48 41 42 47 43 37 34 37 37 34 32 31 30 26 24 23 22 20 20 22 27 27 24 23 24 22 20 19 15 17 15 22 29 28 31 32 29 29
55 53 54 53 52 52 46 44 41 44 44 40 38 38 37 36 37 37 38 36 38 39 35 22 23 28 26 27 32 50 36 23 21 20 18 17 16 23 26 28 28 29 31 32
54 54 54 53 53 52 47 44 42 43 41 41 41 39 38 37 36 38 38 39 38 38 39 34 21 26 24 29 45 23 19 19 24 22 20 17 20 24 24 22 22 20 21 34
54 53 52 54 53 52 48 44 43 44 42 42 40 39 37 37 39 38 36 37 38 38 40 36 39 40 31 21 24 18 17 19 17 19 21 24 26 30 29 26 28 35 35 36
53 53 52 52 53 50 44 45 45 45 41 39 38 39 41 42 42 41 39 39 39 38 37 42 43 43 42 41 29 19 19 20 18 21 29 26 25 26 32 34 35 34 31 32
55 53 53 53 53 52 46 44 44 42 38 41 42 43 43 42 42 40 40 41 39 39 44 42 39 41 43 42 26 26 24 26 26 27 27 21 25 32 34 34 38 41 37 39
53 54 54 53 54 53 50 47 45 45 39 41 41 41 42 41 41 41 41 41 41 42 43 42 34 25 23 25 28 29 28 28 24 23 22 24 31 36 34 33 33 45 42 42
51 52 53 53 53 53 51 49 48 45 43 39 43 42 42 39 40 41 41 43 44 44 43 37 36 30 26 24 26 29 26 28 27 25 19 19 25 33 38 37 32 42 46 45
48 49 51 53 54 53 52 49 51 49 46 43 43 41 41 42 42 41 43 44 42 44 40 33 35 38 33 28 26 25 27 28 25 29 23 25 29 39 41 31 30 39 48 48
47 48 48 51 54 54 53 49 50 49 47 44 44 44 43 44 44 40 42 44 42 43 39 40 37 34 36 32 31 27 26 26 26 29 27 23 41 44 37 39 44 47 49 50
48 49 49 50 52 54 54 48 50 53 49 45 47 46 47 46 46 45 44 44 45 44 40 42 43 41 37 34 33 35 28 30 30 30 30 37 45 43 46 46 47 50 50 52
49 50 50 50 52 54 53 50 49 51 48 45 43 43 45 46 46 47 44 44 47 45 44 45 43 41 42 35 35 39 44 41 39 39 43 46 48 50 52 52 51 52 51 54
50 50 50 50 52 54 53 51 50 51 49 43 41 45 44 44 45 45 46 44 47 48 45 41 45 44 45 40 38 39 43 42 42 44 49 51 51 53 53 54 54 53 54 54
49 50 50 50 51 53 52 52 51 52 48 42 42 45 45 45 45 45 46 46 46 49 45 41 43 48 48 45 41 39 44 41 40 39 46 44 46 52 55 53 54 55 55 55
50 51 50 50 53 52 51 48 52 53 53 46 41 43 44 44 44 43 43 46 50 50 48 42 42 44 46 45 41 41 42 44 41 41 50 50 53 55 55 52 53 57 57 55
51 51 51 52 52 51 46 45 52 53 53 48 43 41 42 44 43 44 46 51 51 50 48 46 43 40 42 43 41 39 42 44 47 52 52 52 53 53 54 53 55 57 58 57
52 51 53 53 52 51 47 48 51 52 50 49 41 40 42 47 43 41 46 48 50 50 48 48 46 43 43 41 42 43 44 45 50 52 50 50 53 54 53 55 57 57 57 57
52 53 52 49 49 48 48 53 54 52 49 44 44 40 40 47 47 48 44 44 44 49 46 47 48 43 40 41 42 45 47 49 51 51 52 52 50 52 53 55 57 56 55 56
52 48 47 43 49 52 53 52 49 48 49 48 42 42 40 42 46 48 47 48 44 41 43 48 45 43 43 42 42 43 45 45 52 52 51 52 51 51 54 55 56 56 55 55
47 44 45 50 53 52 48 45 43 44 42 45 44 42 39 42 42 44 46 43 44 41 42 41 41 40 41 42 42 43 43 44 43 51 54 53 51 52 54 55 56 55 55 54
48 48 50 46 47 46 43 42 44 42 39 43 43 44 42 42 45 44 44 44 44 39 47 44 40 40 41 41 43 43 42 43 43 43 48 52 54 54 54 56 56 55 54 53
50 48 45 45 42 38 37 35 39 41 46 48 48 46 43 43 46 45 42 40 41 46 42 41 44 46 46 45 44 43 42 43 43 43 46 49 53 55 55 56 56 54 54 52
44 40 35 39 38 40 40 40 43 46 47 47 47 47 46 47 45 44 41 43 45 41 39 40 45 45 46 46 52 53 51 46 44 44 46 52 53 54 56 56 56 54 53 53
41 43 35 37 39 41 45 48 48 48 50 49 46 48 48 46 44 43 41 41 39 39 40 44 48 50 50 51 51 51 52 53 46 45 45 47 50 52 54 55 55 54 54 54
41 42 40 39 40 40 44 45 46 50 50 50 48 45 43 42 40 39 40 39 39 44 48 51 52 52 51 51 52 53 54 50 49 47 46 46 47 48 50 50 54 54 54 54
42 39 42 42 41 41 41 43 46 51 47 45 46 41 36 40 38 38 41 41 45 49 51 52 52 52 52 52 53 56 56 55 53 52 52 51 49 48 50 50 53 54 55 55

GFSNW_sfc_dewp_141.txt.gz
Dewpoint
56 55 53 54 52 52 49 44 37 45 47 38 37 33 35 35 33 33 31 30 28 23 20 18 18 20 23 22 22 21 24 22 23 20 23 22 21 23 26 19 30 33 31 25
55 53 54 53 52 52 49 45 44 47 44 38 37 39 37 36 35 36 36 32 28 25 25 25 25 23 22 25 23 25 26 23 24 18 19 20 22 26 26 25 28 34 22 22
54 53 52 52 52 52 50 47 42 46 44 43 39 39 38 36 37 37 38 38 38 38 36 33 29 25 26 28 25 52 35 24 26 20 23 21 23 22 30 26 25 27 25 24
55 54 52 52 52 52 50 48 45 46 42 42 42 41 39 36 36 38 39 39 38 37 38 39 33 31 37 27 46 29 28 29 27 24 21 17 22 23 28 25 27 28 27 34
54 53 52 51 53 51 50 47 47 46 44 43 43 41 38 37 39 40 37 37 38 38 38 38 36 40 41 33 32 25 22 29 27 23 19 20 21 24 25 25 26 29 29 32
55 53 53 51 53 50 46 47 48 47 42 42 40 37 40 41 41 41 41 40 40 39 39 41 42 42 41 41 41 38 28 27 28 24 26 25 22 25 29 30 31 29 31 32
53 53 55 52 53 52 50 48 48 46 38 41 40 41 42 40 40 40 41 42 41 41 42 41 38 38 39 40 40 41 33 34 33 29 30 21 25 31 33 34 35 36 35 37
51 51 52 54 53 53 50 50 49 45 39 40 40 40 41 42 41 40 41 41 42 43 42 39 40 33 30 32 37 39 36 35 30 30 26 27 30 35 35 34 33 40 39 40
49 49 50 52 54 53 50 49 50 48 43 37 41 42 41 39 39 41 42 43 45 44 41 41 38 35 33 28 29 30 30 37 31 30 26 25 28 37 38 36 28 37 43 42
48 48 48 49 52 53 53 49 51 49 46 40 43 40 42 43 43 40 41 43 42 44 42 39 35 38 36 34 29 32 31 32 31 29 26 26 31 37 39 30 26 37 44 47
48 48 48 48 50 53 53 48 52 49 47 41 42 42 41 43 41 39 41 38 44 43 40 42 39 37 38 35 36 34 33 32 30 31 32 27 35 41 36 40 44 45 49 52
48 48 49 50 49 51 54 50 52 54 49 44 46 45 44 43 44 44 45 44 43 44 41 43 45 42 39 39 33 37 31 35 35 37 32 43 47 44 48 46 50 50 52 53
48 49 50 50 50 52 53 52 52 52 46 42 44 43 44 46 43 44 42 42 43 45 47 44 45 45 43 36 36 39 43 42 40 39 45 43 46 51 49 51 52 54 53 54
48 48 50 50 50 52 53 52 54 52 48 42 37 44 43 44 44 46 44 44 48 46 47 43 47 46 47 43 41 41 44 44 44 44 48 50 49 51 53 54 53 53 55 56
48 49 50 50 50 52 53 53 50 50 47 40 39 42 44 44 45 45 45 46 48 47 44 45 42 46 50 45 44 42 44 45 43 38 52 51 51 53 55 54 53 54 55 56
49 50 51 50 51 52 52 46 52 52 53 46 40 44 45 44 45 45 45 46 48 49 48 46 44 44 46 48 42 45 44 45 46 46 51 54 54 55 55 55 54 55 55 57
49 51 51 51 52 53 47 44 52 53 52 48 42 39 43 44 45 44 44 46 50 50 49 48 48 44 43 42 45 44 43 48 49 52 54 54 54 54 54 53 56 57 56 58
49 51 52 53 52 51 47 46 50 51 49 49 40 38 42 47 44 43 48 48 51 50 49 49 48 46 43 41 44 48 48 49 51 53 52 51 55 55 54 54 58 57 54 57
50 52 52 50 49 48 48 53 53 52 50 44 44 38 39 48 50 49 45 47 46 51 47 47 48 46 42 43 45 46 47 49 50 53 52 53 53 52 54 55 57 57 56 56
51 50 47 43 47 52 52 53 49 48 49 47 43 42 39 41 47 49 48 50 45 42 45 48 47 43 47 48 49 48 48 46 50 51 52 52 52 52 55 56 57 57 58 58
48 45 45 51 52 53 49 45 44 43 41 45 43 43 40 43 42 46 50 47 48 42 45 43 42 41 44 46 48 50 48 47 45 48 54 53 52 52 54 55 56 57 58 58
48 49 50 50 48 46 42 42 43 43 39 44 43 45 44 46 48 48 49 45 46 39 48 45 40 43 48 49 47 47 49 46 45 45 50 52 54 52 55 56 57 57 58 59
50 48 45 44 42 37 37 34 39 41 46 46 46 46 45 47 49 48 46 42 42 48 44 42 44 50 51 50 51 46 48 46 46 46 47 50 54 56 55 57 58 58 58 58
44 40 35 38 37 39 40 40 43 47 48 48 48 48 48 49 47 47 42 44 46 41 39 39 46 52 53 53 53 53 52 47 45 46 47 47 53 55 57 57 58 58 58 57
42 42 35 37 39 40 43 47 47 49 50 49 47 48 49 47 45 46 44 41 39 39 41 46 50 53 54 54 54 55 55 54 54 49 48 49 53 55 56 57 58 58 58 57
42 41 38 38 39 40 44 45 45 50 49 50 49 46 45 42 43 42 40 38 39 43 49 52 53 52 54 55 56 57 56 54 54 53 50 49 52 55 56 58 58 58 59 58
41 38 41 40 40 39 41 44 46 51 49 45 47 43 40 43 42 39 43 43 47 50 53 54 53 53 54 56 55 57 57 56 56 54 53 52 51 51 53 56 58 57 59 60

GFSNW_sfc_dewp_144.txt.gz
Dewpoint
55 54 53 53 52 52 50 42 35 47 47 37 36 32 32 35 28 30 28 27 25 23 21 21 23 24 24 22 23 23 23 19 23 18 20 21 20 20 20 19 25 23 21 23
55 54 53 52 52 52 50 41 42 47 44 35 32 36 33 33 32 30 29 26 26 25 23 25 23 22 21 22 22 25 25 22 22 23 20 23 21 21 22 20 20 27 21 21
55 53 52 52 52 52 50 44 37 43 44 43 39 39 36 35 36 34 35 34 34 30 28 26 27 25 25 26 26 48 37 22 25 20 23 21 24 21 23 20 19 21 20 23
55 52 52 52 52 51 51 44 40 45 39 40 41 40 39 36 35 37 38 37 36 35 33 29 28 26 25 31 42 32 26 26 26 24 24 21 22 21 23 23 24 25 25 27
55 55 54 52 52 51 48 43 42 42 35 37 38 39 37 36 35 39 35 37 36 38 38 35 35 36 37 36 35 31 27 29 29 27 23 21 20 21 22 23 23 24 25 26
53 53 54 54 52 50 45 46 47 44 39 33 33 28 31 32 39 34 36 36 39 38 38 39 40 40 40 40 40 40 34 26 32 27 24 23 23 23 22 23 24 25 23 27
50 52 52 53 53 51 49 48 46 41 31 35 32 34 37 37 38 38 37 39 40 39 40 41 38 36 36 37 37 38 40 36 32 26 30 26 26 29 25 24 25 28 29 33
49 50 50 51 53 53 48 49 47 44 35 34 34 34 35 37 39 39 37 37 39 42 42 38 36 33 34 35 37 36 39 37 30 31 28 26 26 29 29 28 28 32 33 37
48 49 49 50 52 53 49 48 50 47 42 32 37 38 39 37 35 35 37 40 42 42 39 36 37 31 29 30 33 37 39 42 34 30 28 27 29 28 31 29 29 34 35 37
49 48 48 48 50 52 53 46 51 50 41 36 38 36 37 40 40 38 37 41 39 44 39 35 34 32 35 32 32 34 32 34 29 32 29 27 29 35 34 30 31 30 35 38
48 48 49 49 48 50 54 46 51 50 43 40 41 39 40 39 41 35 35 37 42 42 42 39 37 35 34 35 35 35 33 31 28 31 30 27 32 37 33 35 39 38 37 43
48 48 49 50 50 49 52 48 50 55 50 40 43 43 44 43 42 40 41 40 43 41 45 45 46 46 38 38 32 39 32 34 32 32 31 45 41 37 39 40 43 46 48 50
48 48 49 50 51 50 52 52 50 46 43 40 38 38 41 41 41 40 39 38 39 40 47 45 45 45 45 37 35 36 38 42 35 38 41 43 41 47 47 45 46 50 48 51
48 48 48 49 51 51 51 53 53 49 45 40 34 41 42 42 41 43 39 40 45 46 47 48 46 44 50 47 44 40 40 43 39 40 48 47 44 47 48 50 52 52 54 54
48 48 49 50 51 52 51 52 48 48 43 37 36 39 42 43 44 43 43 43 42 43 46 45 46 50 48 48 45 40 42 42 39 31 50 50 49 49 53 53 53 54 55 55
48 49 50 52 51 51 53 43 52 47 51 44 40 39 43 44 45 44 44 44 44 45 44 41 42 44 49 47 47 43 43 45 47 45 51 51 50 51 54 54 54 54 54 55
49 49 50 52 51 52 46 43 52 53 53 47 41 38 42 44 45 45 44 45 45 45 44 45 44 43 45 46 45 43 43 47 50 50 54 53 52 53 53 54 54 54 55 57
48 49 52 52 52 51 46 45 49 51 47 47 41 36 41 46 45 44 46 44 49 50 50 49 48 46 44 43 43 45 47 47 50 53 51 51 54 54 54 54 55 54 55 57
49 51 52 51 48 47 46 54 52 50 46 46 44 36 39 47 50 49 46 46 47 53 47 46 48 45 43 44 46 47 48 47 48 51 52 53 53 54 54 54 55 54 55 55
50 50 46 43 46 54 53 53 49 49 50 50 40 40 38 40 46 48 48 50 45 42 44 49 46 42 46 46 48 49 49 49 49 49 49 51 51 51 52 53 55 54 54 55
49 44 41 51 52 52 50 45 44 44 42 43 41 41 40 43 39 45 49 46 48 43 46 44 44 44 47 48 48 49 49 49 48 48 52 53 53 51 53 53 54 54 56 57
50 49 48 49 48 46 43 41 43 41 39 44 44 45 45 44 46 46 50 46 48 40 47 44 42 49 53 53 50 51 50 48 46 46 46 53 52 52 53 53 54 55 56 57
50 49 45 43 42 39 35 33 38 42 45 46 46 45 48 46 47 49 48 42 42 48 45 43 48 53 54 54 54 53 49 48 46 45 46 50 53 53 54 55 55 56 57 57
45 40 37 37 35 35 37 38 44 47 47 48 49 48 49 51 49 49 42 44 44 39 38 41 50 51 53 55 54 54 50 48 47 47 46 47 52 55 56 56 57 57 58 57
42 42 36 35 36 38 41 45 43 48 48 47 46 47 50 48 46 47 43 39 37 39 42 46 51 53 53 55 55 55 55 52 50 47 46 48 47 51 56 56 57 58 58 58
42 41 37 37 37 36 39 44 43 50 49 49 48 46 45 42 42 41 39 37 39 42 48 51 54 53 53 56 56 57 57 55 54 53 50 49 49 52 55 57 57 58 59 60
40 37 37 37 37 37 39 40 44 50 49 45 47 43 40 44 43 39 44 44 47 51 52 55 55 54 55 56 56 57 56 57 56 56 55 54 51 52 55 57 60 58 60 61

GFSNW_sfc_dewp_147.txt.gz
Dewpoint
55 54 54 52 52 51 48 42 34 45 43 38 35 31 30 33 27 29 27 26 25 23 21 23 24 23 23 22 22 22 23 19 20 17 18 18 18 17 19 19 26 21 21 20
56 54 53 52 51 52 48 41 34 42 42 34 32 31 31 30 29 27 28 26 25 23 23 25 24 24 23 23 22 25 25 20 20 19 19 18 18 19 19 18 18 26 24 20
55 55 53 52 51 51 49 42 32 40 39 36 36 35 35 32 32 32 32 33 31 29 27 26 28 25 23 24 25 52 36 23 23 17 23 21 21 18 20 18 19 21 19 30
53 55 54 54 52 51 50 42 35 39 35 37 37 36 35 34 33 35 34 36 34 33 33 30 27 25 25 25 38 31 27 27 26 22 22 27 23 17 18 20 23 22 27 24
51 53 54 53 53 51 48 36 40 40 35 33 33 33 33 33 32 33 34 35 33 36 35 35 33 29 29 29 33 32 28 29 29 26 23 24 24 18 19 21 22 23 24 31
50 51 52 52 52 51 42 42 41 39 35 31 29 28 27 29 31 33 35 31 34 34 35 38 39 38 37 36 39 38 38 30 30 26 25 24 23 23 22 22 23 23 24 27
49 50 50 52 52 53 47 45 45 37 31 28 30 28 29 31 33 34 32 35 36 35 35 36 36 36 37 37 36 35 37 41 34 27 31 30 24 23 23 23 24 23 25 27
48 49 50 50 52 53 48 48 45 42 33 29 29 30 29 30 33 33 33 31 33 35 34 35 35 31 35 35 32 32 33 38 35 30 30 36 27 28 27 26 25 24 25 30
49 50 49 49 51 52 50 45 49 44 36 32 36 33 33 32 31 31 32 34 35 38 36 32 34 30 33 32 31 29 32 40 37 33 31 32 36 29 29 26 25 28 30 33
49 49 49 49 49 51 49 47 50 44 38 35 36 33 36 38 36 34 34 34 37 37 34 31 30 29 35 32 30 34 34 36 35 33 33 35 35 34 30 27 31 31 33 36
49 49 49 50 50 49 49 48 50 44 41 39 39 38 38 38 38 35 34 32 32 32 36 32 34 34 34 36 36 36 36 37 33 36 35 32 35 35 30 41 38 34 33 38
49 49 49 50 51 50 49 47 49 50 47 41 43 41 41 41 41 38 37 36 40 41 46 49 50 46 41 40 35 43 37 36 32 33 34 48 42 38 35 38 41 40 41 43
49 48 49 48 50 51 50 51 49 46 41 39 38 37 39 38 38 38 37 36 37 38 47 45 49 45 47 46 43 41 45 39 34 41 38 39 40 40 37 38 40 44 43 45
49 48 49 48 50 51 50 50 50 48 43 37 33 37 39 40 39 40 40 38 40 44 44 43 43 46 51 47 48 49 50 44 39 40 42 44 44 41 44 41 45 46 47 48
49 48 49 50 51 52 48 45 45 47 42 36 36 38 40 39 42 41 41 40 37 37 41 42 43 46 47 42 44 50 49 44 36 35 44 49 49 47 46 49 49 51 52 52
48 48 49 50 52 51 47 44 52 48 54 45 38 39 41 43 46 45 43 40 41 41 43 42 43 43 46 43 45 46 48 55 49 44 45 48 52 50 50 51 51 52 52 53
48 49 50 51 52 48 45 47 52 51 52 45 42 38 42 42 45 43 41 42 43 44 43 42 41 49 50 45 41 44 52 53 49 47 49 52 52 48 51 52 52 54 52 54
48 49 50 52 52 51 44 44 50 51 46 45 42 35 42 46 45 45 44 42 44 47 45 47 47 44 45 40 41 43 52 52 51 51 51 48 50 51 52 53 54 51 52 54
49 50 50 49 48 47 50 53 52 49 46 45 43 36 40 45 47 51 47 49 47 51 48 45 47 43 44 44 46 46 49 50 51 51 51 51 52 52 53 53 52 51 52 55
50 48 46 45 49 53 53 52 50 51 50 48 39 37 36 41 44 47 48 51 48 45 46 49 46 42 47 47 48 47 51 49 50 47 51 50 51 52 51 51 52 52 54 55
47 45 42 50 52 50 50 46 45 45 42 42 40 41 40 43 42 44 49 44 46 43 46 46 45 45 52 52 49 49 49 49 49 49 49 52 50 49 50 51 52 52 53 54
50 48 47 46 47 47 43 42 43 42 39 46 45 46 46 44 46 43 50 46 47 42 48 45 41 50 53 53 52 50 50 49 47 48 47 49 53 48 50 50 50 51 53 56
49 49 44 43 42 39 35 31 36 42 45 46 47 46 47 49 45 43 46 45 43 48 45 43 48 52 54 54 55 53 52 51 48 48 47 47 52 54 51 51 51 52 54 56
45 41 38 38 34 35 34 43 45 47 48 49 49 48 49 51 49 46 43 41 40 38 39 43 48 50 51 55 56 56 51 49 47 47 47 47 51 52 53 51 53 53 56 56
43 41 37 34 34 34 37 43 42 50 47 44 43 44 50 47 47 47 41 38 37 42 42 46 49 53 53 55 56 57 55 49 47 48 47 47 49 54 53 54 53 55 57 58
43 40 37 36 36 36 38 44 45 48 47 49 48 45 45 43 43 41 38 37 39 42 49 52 53 54 53 57 57 57 57 56 50 48 47 47 49 54 57 57 56 56 58 59
38 36 36 35 35 35 37 39 40 47 49 45 47 43 41 44 41 40 46 43 47 50 52 55 55 55 55 55 56 55 57 57 56 55 53 50 52 51 53 54 58 54 56 62